Tracking 28125 objects as of 2-Oct-2023
HD Live streaming from Space Station
objects crossing your sky now

EDUSAT

Track EDUSAT now!
10-day predictions
EDUSAT is classified as:


NORAD ID: 37788
Int'l Code: 2011-044A
Perigee: 633.4 km
Apogee: 686.6 km
Inclination: 98.4 °
Period: 97.8 minutes
Semi major axis: 7031 km
RCS: 0.1421 m2 (medium)
Launch date: August 17, 2011
Source: Italy (IT)
Launch site: Orenburg, Russia (OREN)

EduSat is a microsatellite built by the University of Rome.
Your satellite tracking list
Your tracking list is empty




NASA's NSSDC Master Catalog

Two Line Element Set (TLE):
1 37788U 11044A   23274.58031532  .00001679  00000-0  26977-3 0  9995
2 37788  98.3966 128.0364 0037841  30.2697  23.9660 14.72564855650677
Source of the keplerian elements: AFSPC